Starlink 31315

operational
NORAD ID: 58884 Int'l Des: 2024-020 Owner: SPXS Country: US Constellation: starlink
LEOCIRCULAR

About Starlink 31315

Description loading...

Live Position

Loading 3D Globe...

Upcoming Passes

Altitude History

Altitude vs Time

uPlot chart will show altitude changes over time

Two-Line Element Set

1 58884U 24020J 26037.13591578 .00001753 00000-0 71317-4 0 9997
2 58884 53.1589 83.0338 0001496 100.1313 259.9857 15.30189383113607
Epoch: Feb 6, 2026 • Age: 14 hours

Current Status

Altitude 475.7 km
Velocity 7.63 km/s
Sub-Earth Point 23.38°N, 59.73°E
Launch Date Jan 29, 2024
Age 2 years
Type internet

Technical Details

Classification Payload
Mass 730.00 kg
Dry Mass 700.00 kg
Total Mass 730.00 kg
Length 0.30 m
Diameter 4.10 m
Span 29.00 m
Shape Box + pan
Manufacturer SPXS
Bus Type Starlink V2M
Phase Status In Orbit
Owner/State SPXS/US

Large Constellations

Loading constellations...